Terug naar catalogus

STARLINK-31100

ActiefCommunicatieVLEO
NORAD 58714·PAYLOAD·🇺🇸 United States

Gelanceerd Jan 3, 2024 vanaf Vandenberg Space Force Base

Loading…

Volgende Passages (komende 24 uur)

TLE

VersSource: CelesTrak SupGP

Epoch: Sep 15, 2026, 02:03 UTC

1 58714C 24002K   26258.08590278 -.00021647  00000+0 -63968-3 0  2589
2 58714  53.1590  68.7497 0001132  81.8876 269.1499 15.34395310    11

Volg STARLINK-31100 in realtime met AllMySat

Download on the App Store